Year,Month,Day,Hour,Minute,Value (Times are PST for windspeed in km/hr)
2010,07,12,00,00,9.50
2010,07,12,00,01,7.10
2010,07,12,00,02,12.40
2010,07,12,00,03,16.90
2010,07,12,00,04,19.90
2010,07,12,00,05,22.70
2010,07,12,00,06,23.70
2010,07,12,00,07,7.80
2010,07,12,00,08,15.80
2010,07,12,00,09,8.90
2010,07,12,00,10,11.30
2010,07,12,00,11,9.50
2010,07,12,00,12,6.90
2010,07,12,00,13,19.80
2010,07,12,00,14,22.50
2010,07,12,00,15,18.80
2010,07,12,00,16,18.00
2010,07,12,00,17,16.90
2010,07,12,00,18,9.60
2010,07,12,00,19,10.50
2010,07,12,00,20,15.40
2010,07,12,00,21,20.40
2010,07,12,00,22,21.20
2010,07,12,00,23,15.90
2010,07,12,00,24,14.50
2010,07,12,00,25,20.00
2010,07,12,00,26,17.50
2010,07,12,00,27,15.20
2010,07,12,00,28,12.20
2010,07,12,00,29,27.40
2010,07,12,00,30,22.40
2010,07,12,00,31,22.80
2010,07,12,00,32,23.80
2010,07,12,00,33,22.40
2010,07,12,00,34,17.40
2010,07,12,00,35,8.70
2010,07,12,00,36,15.90
2010,07,12,00,37,10.10
2010,07,12,00,38,19.10
2010,07,12,00,39,17.80
2010,07,12,00,40,10.40
2010,07,12,00,41,9.50
2010,07,12,00,42,11.80
2010,07,12,00,43,11.00
2010,07,12,00,44,8.50
2010,07,12,00,45,19.20
2010,07,12,00,46,21.30
2010,07,12,00,47,15.20
2010,07,12,00,48,13.20
2010,07,12,00,49,10.80
2010,07,12,00,50,7.90
2010,07,12,00,51,13.70
2010,07,12,00,52,21.10
2010,07,12,00,53,18.90
2010,07,12,00,54,7.70
2010,07,12,00,55,3.60
2010,07,12,00,56,9.70
2010,07,12,00,57,6.70
2010,07,12,00,58,5.80
2010,07,12,00,59,12.40
2010,07,12,01,00,5.20
2010,07,12,01,01,12.10
2010,07,12,01,02,17.40
2010,07,12,01,03,10.00
2010,07,12,01,04,7.80
2010,07,12,01,05,5.80
2010,07,12,01,06,8.00
2010,07,12,01,07,13.50
2010,07,12,01,08,7.60
2010,07,12,01,09,9.20
2010,07,12,01,10,12.50
2010,07,12,01,11,10.90
2010,07,12,01,12,8.00
2010,07,12,01,13,19.30
2010,07,12,01,14,19.60
2010,07,12,01,15,21.00
2010,07,12,01,16,8.00
2010,07,12,01,17,15.50
2010,07,12,01,18,9.40
2010,07,12,01,19,12.50
2010,07,12,01,20,9.40
2010,07,12,01,21,13.50
2010,07,12,01,22,7.20
2010,07,12,01,23,4.30
2010,07,12,01,24,12.20
2010,07,12,01,25,6.40
2010,07,12,01,26,8.00
2010,07,12,01,27,13.10
2010,07,12,01,28,10.30
2010,07,12,01,29,9.40
2010,07,12,01,30,8.60
2010,07,12,01,31,3.40
2010,07,12,01,32,8.10
2010,07,12,01,33,3.80
2010,07,12,01,34,3.50
2010,07,12,01,35,9.60
2010,07,12,01,36,12.60
2010,07,12,01,37,1.90
2010,07,12,01,38,3.90
2010,07,12,01,39,6.50
2010,07,12,01,40,8.50
2010,07,12,01,41,17.10
2010,07,12,01,42,14.60
2010,07,12,01,43,6.60
2010,07,12,01,44,3.50
2010,07,12,01,45,10.50
2010,07,12,01,46,15.20
2010,07,12,01,47,7.30
2010,07,12,01,48,7.90
2010,07,12,01,49,8.00
2010,07,12,01,50,13.80
2010,07,12,01,51,14.90
2010,07,12,01,52,13.40
2010,07,12,01,53,9.90
2010,07,12,01,54,9.60
2010,07,12,01,55,16.90
2010,07,12,01,56,23.00
2010,07,12,01,57,21.80
2010,07,12,01,58,19.30
2010,07,12,01,59,14.10
2010,07,12,02,00,27.00
2010,07,12,02,01,30.30
2010,07,12,02,02,18.10
2010,07,12,02,03,19.50
2010,07,12,02,04,28.60
2010,07,12,02,05,18.70
2010,07,12,02,06,16.90
2010,07,12,02,07,23.50
2010,07,12,02,08,25.20
2010,07,12,02,09,33.60
2010,07,12,02,10,26.00
2010,07,12,02,11,22.80
2010,07,12,02,12,28.60
2010,07,12,02,13,30.80
2010,07,12,02,14,35.50
2010,07,12,02,15,29.60
2010,07,12,02,16,29.90
2010,07,12,02,17,27.00
2010,07,12,02,18,32.30
2010,07,12,02,19,31.70
2010,07,12,02,20,30.70
2010,07,12,02,21,29.90
2010,07,12,02,22,36.40
2010,07,12,02,23,40.00
2010,07,12,02,24,39.30
2010,07,12,02,25,34.00
2010,07,12,02,26,40.40
2010,07,12,02,27,31.30
2010,07,12,02,28,35.70
2010,07,12,02,29,31.70
2010,07,12,02,30,29.90
2010,07,12,02,31,30.00
2010,07,12,02,32,30.70
2010,07,12,02,33,34.60
2010,07,12,02,34,24.10
2010,07,12,02,35,37.90
2010,07,12,02,36,30.00
2010,07,12,02,37,35.90
2010,07,12,02,38,30.10
2010,07,12,02,39,24.90
2010,07,12,02,40,30.90
2010,07,12,02,41,29.60
2010,07,12,02,42,20.60
2010,07,12,02,43,22.70
2010,07,12,02,44,25.50
2010,07,12,02,45,24.10
2010,07,12,02,46,28.50
2010,07,12,02,47,28.10
2010,07,12,02,48,19.80
2010,07,12,02,49,31.50
2010,07,12,02,50,24.80
2010,07,12,02,51,28.30
2010,07,12,02,52,25.40
2010,07,12,02,53,26.60
2010,07,12,02,54,19.10
2010,07,12,02,55,19.60
2010,07,12,02,56,25.90
2010,07,12,02,57,25.10
2010,07,12,02,58,19.60
2010,07,12,02,59,24.70
2010,07,12,03,00,18.70
2010,07,12,03,01,19.70
2010,07,12,03,02,24.60
2010,07,12,03,03,17.30
2010,07,12,03,04,22.50
2010,07,12,03,05,16.70
2010,07,12,03,06,19.00
2010,07,12,03,07,25.80
2010,07,12,03,08,17.50
2010,07,12,03,09,20.80
2010,07,12,03,10,13.80
2010,07,12,03,11,19.30
2010,07,12,03,12,23.80
2010,07,12,03,13,16.60
2010,07,12,03,14,24.80
2010,07,12,03,15,12.10
2010,07,12,03,16,28.00
2010,07,12,03,17,16.10
2010,07,12,03,18,22.60
2010,07,12,03,19,19.90
2010,07,12,03,20,19.10
2010,07,12,03,21,26.80
2010,07,12,03,22,14.20
2010,07,12,03,23,21.90
2010,07,12,03,24,17.90
2010,07,12,03,25,21.50
2010,07,12,03,26,22.70
2010,07,12,03,27,26.70
2010,07,12,03,28,19.60
2010,07,12,03,29,19.00
2010,07,12,03,30,20.10
2010,07,12,03,31,26.30
2010,07,12,03,32,22.20
2010,07,12,03,33,23.80
2010,07,12,03,34,18.70
2010,07,12,03,35,16.30
2010,07,12,03,36,20.70
2010,07,12,03,37,15.90
2010,07,12,03,38,17.50
2010,07,12,03,39,16.60
2010,07,12,03,40,14.90
2010,07,12,03,41,19.80
2010,07,12,03,42,17.80
2010,07,12,03,43,15.70
2010,07,12,03,44,21.30
2010,07,12,03,45,17.10
2010,07,12,03,46,24.30
2010,07,12,03,47,19.40
2010,07,12,03,48,21.60
2010,07,12,03,49,15.10
2010,07,12,03,50,15.00
2010,07,12,03,51,16.40
2010,07,12,03,52,16.30
2010,07,12,03,53,17.20
2010,07,12,03,54,15.00
2010,07,12,03,55,11.40
2010,07,12,03,56,21.90
2010,07,12,03,57,19.50
2010,07,12,03,58,21.20
2010,07,12,03,59,19.60
2010,07,12,04,00,23.00
2010,07,12,04,01,18.80
2010,07,12,04,02,20.00
2010,07,12,04,03,17.10
2010,07,12,04,04,29.70
2010,07,12,04,05,26.00
2010,07,12,04,06,15.00
2010,07,12,04,07,14.60
2010,07,12,04,08,29.60
2010,07,12,04,09,17.30
2010,07,12,04,10,20.30
2010,07,12,04,11,28.60
2010,07,12,04,12,21.20
2010,07,12,04,13,21.30
2010,07,12,04,14,14.70
2010,07,12,04,15,16.00
2010,07,12,04,16,16.30
2010,07,12,04,17,13.80
2010,07,12,04,18,24.50
2010,07,12,04,19,13.30
2010,07,12,04,20,20.50
2010,07,12,04,21,14.40
2010,07,12,04,22,16.70
2010,07,12,04,23,22.10
2010,07,12,04,24,25.10
2010,07,12,04,25,26.30
2010,07,12,04,26,19.00
2010,07,12,04,27,16.40
2010,07,12,04,28,13.30
2010,07,12,04,29,24.80
2010,07,12,04,30,25.20
2010,07,12,04,31,20.70
2010,07,12,04,32,13.70
2010,07,12,04,33,27.20
2010,07,12,04,34,25.20
2010,07,12,04,35,21.30
2010,07,12,04,36,26.20
2010,07,12,04,37,21.60
2010,07,12,04,38,28.90
2010,07,12,04,39,21.50
2010,07,12,04,40,14.40
2010,07,12,04,41,19.10
2010,07,12,04,42,20.50
2010,07,12,04,43,16.00
2010,07,12,04,44,14.70
2010,07,12,04,45,16.20
2010,07,12,04,46,20.60
2010,07,12,04,47,24.90
2010,07,12,04,48,18.80
2010,07,12,04,49,16.70
2010,07,12,04,50,21.80
2010,07,12,04,51,25.80
2010,07,12,04,52,13.40
2010,07,12,04,53,20.00
2010,07,12,04,54,24.50
2010,07,12,04,55,25.00
2010,07,12,04,56,22.80
2010,07,12,04,57,23.20
2010,07,12,04,58,22.20
2010,07,12,04,59,13.00
2010,07,12,05,00,19.30
2010,07,12,05,01,18.90
2010,07,12,05,02,14.20
2010,07,12,05,03,13.80
2010,07,12,05,04,16.30
2010,07,12,05,05,17.50
2010,07,12,05,06,22.00
2010,07,12,05,07,22.80
2010,07,12,05,08,23.20
2010,07,12,05,09,19.50
2010,07,12,05,10,22.90
2010,07,12,05,11,20.40
2010,07,12,05,12,24.60
2010,07,12,05,13,23.20
2010,07,12,05,14,19.50
2010,07,12,05,15,26.20
2010,07,12,05,16,17.20
2010,07,12,05,17,12.30
2010,07,12,05,18,24.80
2010,07,12,05,19,22.20
2010,07,12,05,20,19.10
2010,07,12,05,21,21.60
2010,07,12,05,22,15.00
2010,07,12,05,23,28.40
2010,07,12,05,24,22.30
2010,07,12,05,25,29.10
2010,07,12,05,26,23.70
2010,07,12,05,27,18.90
2010,07,12,05,28,17.20
2010,07,12,05,29,23.30
2010,07,12,05,30,18.90
2010,07,12,05,31,22.70
2010,07,12,05,32,27.20
2010,07,12,05,33,28.50
2010,07,12,05,34,27.60
2010,07,12,05,35,25.20
2010,07,12,05,36,25.20
2010,07,12,05,37,24.10
2010,07,12,05,38,23.80
2010,07,12,05,39,21.40
2010,07,12,05,40,24.20
2010,07,12,05,41,26.50
2010,07,12,05,42,25.70
2010,07,12,05,43,9.00
2010,07,12,05,44,17.90
2010,07,12,05,45,23.30
2010,07,12,05,46,28.40
2010,07,12,05,47,26.70
2010,07,12,05,48,27.60
2010,07,12,05,49,31.20
2010,07,12,05,50,26.70
2010,07,12,05,51,27.90
2010,07,12,05,52,24.90
2010,07,12,05,53,23.10
2010,07,12,05,54,24.40
2010,07,12,05,55,21.60
2010,07,12,05,56,21.40
2010,07,12,05,57,23.50
2010,07,12,05,58,26.40
2010,07,12,05,59,19.20
2010,07,12,06,00,27.00
2010,07,12,06,01,19.40
2010,07,12,06,02,22.90
2010,07,12,06,03,20.20
2010,07,12,06,04,21.20
2010,07,12,06,05,23.80
2010,07,12,06,06,20.40
2010,07,12,06,07,28.60
2010,07,12,06,08,21.60
2010,07,12,06,09,16.60
2010,07,12,06,10,23.80
2010,07,12,06,11,31.50
2010,07,12,06,12,18.30
2010,07,12,06,13,17.10
2010,07,12,06,14,22.40
2010,07,12,06,15,22.60
2010,07,12,06,16,26.70
2010,07,12,06,17,26.80
2010,07,12,06,18,22.20
2010,07,12,06,19,24.40
2010,07,12,06,20,24.10
2010,07,12,06,21,26.40
2010,07,12,06,22,31.90
2010,07,12,06,23,22.20
2010,07,12,06,24,26.30
2010,07,12,06,25,15.10
2010,07,12,06,26,16.60
2010,07,12,06,27,22.40
2010,07,12,06,28,14.40
2010,07,12,06,29,26.60
2010,07,12,06,30,18.20
2010,07,12,06,31,20.80
2010,07,12,06,32,15.10
2010,07,12,06,33,13.80
2010,07,12,06,34,16.00
2010,07,12,06,35,25.20
2010,07,12,06,36,19.50
2010,07,12,06,37,27.40
2010,07,12,06,38,20.80
2010,07,12,06,39,17.90
2010,07,12,06,40,20.50
2010,07,12,06,41,23.60
2010,07,12,06,42,25.50
2010,07,12,06,43,22.20
2010,07,12,06,44,15.90
2010,07,12,06,45,14.60
2010,07,12,06,46,17.20
2010,07,12,06,47,19.70
2010,07,12,06,48,21.30
2010,07,12,06,49,15.10
2010,07,12,06,50,17.10
2010,07,12,06,51,13.70
2010,07,12,06,52,14.20
2010,07,12,06,53,23.00
2010,07,12,06,54,21.20
2010,07,12,06,55,22.60
2010,07,12,06,56,15.10
2010,07,12,06,57,20.70
2010,07,12,06,58,19.20
2010,07,12,06,59,13.70
2010,07,12,07,00,20.10
2010,07,12,07,01,18.50
2010,07,12,07,02,20.30
2010,07,12,07,03,22.00
2010,07,12,07,04,14.60
2010,07,12,07,05,15.20
2010,07,12,07,06,16.60
2010,07,12,07,07,14.10
2010,07,12,07,08,16.70
2010,07,12,07,09,16.20
2010,07,12,07,10,14.40
2010,07,12,07,11,15.40
2010,07,12,07,12,12.00
2010,07,12,07,13,19.20
2010,07,12,07,14,14.40
2010,07,12,07,15,12.20
2010,07,12,07,16,20.80
2010,07,12,07,17,19.80
2010,07,12,07,18,12.00
2010,07,12,07,19,21.80
2010,07,12,07,20,17.20
2010,07,12,07,21,14.30
2010,07,12,07,22,24.10
2010,07,12,07,23,17.90
2010,07,12,07,24,12.80
2010,07,12,07,25,15.10
2010,07,12,07,26,27.00
2010,07,12,07,27,18.50
2010,07,12,07,28,15.50
2010,07,12,07,29,14.30
2010,07,12,07,30,6.30
2010,07,12,07,31,10.30
2010,07,12,07,32,14.60
2010,07,12,07,33,11.40
2010,07,12,07,34,15.80
2010,07,12,07,35,20.50
2010,07,12,07,36,14.20
2010,07,12,07,37,12.90
2010,07,12,07,38,6.80
2010,07,12,07,39,7.10
2010,07,12,07,40,14.60
2010,07,12,07,41,13.00
2010,07,12,07,42,11.40
2010,07,12,07,43,10.20
2010,07,12,07,44,7.90
2010,07,12,07,45,9.30
2010,07,12,07,46,14.40
2010,07,12,07,47,8.60
2010,07,12,07,48,11.70
2010,07,12,07,49,10.10
2010,07,12,07,50,11.80
2010,07,12,07,51,10.00
2010,07,12,07,52,9.30
2010,07,12,07,53,6.40
2010,07,12,07,54,3.70
2010,07,12,07,55,8.00
2010,07,12,07,56,5.90
2010,07,12,07,57,6.30
2010,07,12,07,58,6.90
2010,07,12,07,59,5.60
2010,07,12,08,00,5.40
2010,07,12,08,01,4.70
2010,07,12,08,02,4.20
2010,07,12,08,03,6.70
2010,07,12,08,04,10.50
2010,07,12,08,05,9.70
2010,07,12,08,06,7.10
2010,07,12,08,07,7.80
2010,07,12,08,08,3.90
2010,07,12,08,09,6.30
2010,07,12,08,10,11.00
2010,07,12,08,11,13.40
2010,07,12,08,12,9.10
2010,07,12,08,13,10.90
2010,07,12,08,14,15.70
2010,07,12,08,15,10.90
2010,07,12,08,16,19.20
2010,07,12,08,17,16.10
2010,07,12,08,18,17.90
2010,07,12,08,19,15.60
2010,07,12,08,20,16.00
2010,07,12,08,21,14.00
2010,07,12,08,22,10.50
2010,07,12,08,23,14.70
2010,07,12,08,24,9.50
2010,07,12,08,25,7.60
2010,07,12,08,26,11.00
2010,07,12,08,27,9.70
2010,07,12,08,28,9.30
2010,07,12,08,29,13.80
2010,07,12,08,30,15.60
2010,07,12,08,31,13.80
2010,07,12,08,32,5.30
2010,07,12,08,33,3.40
2010,07,12,08,34,1.80
2010,07,12,08,35,5.50
2010,07,12,08,36,15.30
2010,07,12,08,37,14.60
2010,07,12,08,38,9.00
2010,07,12,08,39,3.30
2010,07,12,08,40,8.30
2010,07,12,08,41,6.80
2010,07,12,08,42,10.10
2010,07,12,08,43,7.20
2010,07,12,08,44,9.40
2010,07,12,08,45,10.10
2010,07,12,08,46,10.60
2010,07,12,08,47,8.40
2010,07,12,08,48,7.40
2010,07,12,08,49,6.50
2010,07,12,08,50,10.10
2010,07,12,08,51,12.80
2010,07,12,08,52,8.90
2010,07,12,08,53,7.80
2010,07,12,08,54,8.40
2010,07,12,08,55,10.20
2010,07,12,08,56,13.80
2010,07,12,08,57,16.50
2010,07,12,08,58,12.50
2010,07,12,08,59,5.70
2010,07,12,09,00,4.00
2010,07,12,09,01,4.10
2010,07,12,09,02,12.90
2010,07,12,09,03,8.10
2010,07,12,09,04,7.60
2010,07,12,09,05,15.40
2010,07,12,09,06,16.70
2010,07,12,09,07,7.40
2010,07,12,09,08,12.90
2010,07,12,09,09,13.60
2010,07,12,09,10,10.10
2010,07,12,09,11,7.90
2010,07,12,09,12,16.00
2010,07,12,09,13,16.80
2010,07,12,09,14,17.20
2010,07,12,09,15,16.90
2010,07,12,09,16,15.90
2010,07,12,09,17,8.40
2010,07,12,09,18,9.40
2010,07,12,09,19,15.90
2010,07,12,09,20,9.90
2010,07,12,09,21,10.20
2010,07,12,09,22,11.30
2010,07,12,09,23,6.90
2010,07,12,09,24,13.80
2010,07,12,09,25,7.60
2010,07,12,09,26,11.40
2010,07,12,09,27,13.10
2010,07,12,09,28,12.60
2010,07,12,09,29,15.00
2010,07,12,09,30,12.30
2010,07,12,09,31,11.30
2010,07,12,09,32,12.30
2010,07,12,09,33,5.60
2010,07,12,09,34,18.60
2010,07,12,09,35,16.80
2010,07,12,09,36,20.60
2010,07,12,09,37,16.60
2010,07,12,09,38,11.40
2010,07,12,09,39,11.30
2010,07,12,09,40,6.40
2010,07,12,09,41,9.20
2010,07,12,09,42,8.20
2010,07,12,09,43,11.30
2010,07,12,09,44,16.60
2010,07,12,09,45,13.20
2010,07,12,09,46,18.70
2010,07,12,09,47,13.60
2010,07,12,09,48,9.40
2010,07,12,09,49,15.70
2010,07,12,09,50,8.10
2010,07,12,09,51,7.20
2010,07,12,09,52,10.60
2010,07,12,09,53,10.10
2010,07,12,09,54,14.00
2010,07,12,09,55,10.60
2010,07,12,09,56,17.50
2010,07,12,09,57,16.30
2010,07,12,09,58,12.60
2010,07,12,09,59,20.50
2010,07,12,10,00,12.50
2010,07,12,10,01,15.10
2010,07,12,10,02,17.10
2010,07,12,10,03,13.60
2010,07,12,10,04,13.00
2010,07,12,10,05,15.30
2010,07,12,10,06,9.90
2010,07,12,10,07,6.20
2010,07,12,10,08,11.60
2010,07,12,10,09,11.70
2010,07,12,10,10,12.10
2010,07,12,10,11,15.90
2010,07,12,10,12,13.60
2010,07,12,10,13,13.90
2010,07,12,10,14,19.80
2010,07,12,10,15,19.50
2010,07,12,10,16,13.80
2010,07,12,10,17,21.00
2010,07,12,10,18,23.10
2010,07,12,10,19,16.00
2010,07,12,10,20,14.20
2010,07,12,10,21,7.70
2010,07,12,10,22,7.10
2010,07,12,10,23,10.10
2010,07,12,10,24,14.20
2010,07,12,10,25,8.00
2010,07,12,10,26,11.70
2010,07,12,10,27,21.40
2010,07,12,10,28,20.30
2010,07,12,10,29,20.40
2010,07,12,10,30,12.10
2010,07,12,10,31,13.60
2010,07,12,10,32,14.90
2010,07,12,10,33,20.70
2010,07,12,10,34,28.00
2010,07,12,10,35,20.10
2010,07,12,10,36,17.20
2010,07,12,10,37,21.60
2010,07,12,10,38,19.90
2010,07,12,10,39,17.40
2010,07,12,10,40,18.00
2010,07,12,10,41,26.80
2010,07,12,10,42,15.70
2010,07,12,10,43,25.10
2010,07,12,10,44,17.10
2010,07,12,10,45,13.50
2010,07,12,10,46,9.20
2010,07,12,10,47,22.90
2010,07,12,10,48,19.60
2010,07,12,10,49,20.20
2010,07,12,10,50,18.70
2010,07,12,10,51,22.20
2010,07,12,10,52,18.80
2010,07,12,10,53,20.10
2010,07,12,10,54,19.10
2010,07,12,10,55,21.10
2010,07,12,10,56,20.20
2010,07,12,10,57,15.00
2010,07,12,10,58,13.80
2010,07,12,10,59,12.30
2010,07,12,11,00,17.10
2010,07,12,11,01,22.40
2010,07,12,11,02,22.00
2010,07,12,11,03,20.20
2010,07,12,11,04,23.40
2010,07,12,11,05,19.50
2010,07,12,11,06,18.50
2010,07,12,11,07,17.70
2010,07,12,11,08,11.10
2010,07,12,11,09,16.30
2010,07,12,11,10,23.20
2010,07,12,11,11,25.10
2010,07,12,11,12,14.60
2010,07,12,11,13,10.70
2010,07,12,11,14,12.60
2010,07,12,11,15,18.70
2010,07,12,11,16,18.80
2010,07,12,11,17,21.50
2010,07,12,11,18,16.70
2010,07,12,11,19,9.50
2010,07,12,11,20,5.30
2010,07,12,11,21,18.50
2010,07,12,11,22,27.90
2010,07,12,11,23,20.60
2010,07,12,11,24,21.90
2010,07,12,11,25,21.80
2010,07,12,11,26,15.00
2010,07,12,11,27,24.80
2010,07,12,11,28,22.90
2010,07,12,11,29,17.90
2010,07,12,11,30,20.90
2010,07,12,11,31,26.40
2010,07,12,11,32,22.10
2010,07,12,11,33,20.80
2010,07,12,11,34,24.10
2010,07,12,11,35,19.00
2010,07,12,11,36,18.20
2010,07,12,11,37,26.30
2010,07,12,11,38,29.00
2010,07,12,11,39,21.80
2010,07,12,11,40,15.00
2010,07,12,11,41,15.40
2010,07,12,11,42,24.50
2010,07,12,11,43,20.80
2010,07,12,11,44,18.30
2010,07,12,11,45,14.60
2010,07,12,11,46,14.90
2010,07,12,11,47,21.10
2010,07,12,11,48,26.80
2010,07,12,11,49,16.70
2010,07,12,11,50,21.20
2010,07,12,11,51,17.70
2010,07,12,11,52,20.20
2010,07,12,11,53,21.10
2010,07,12,11,54,25.30
2010,07,12,11,55,24.70
2010,07,12,11,56,25.20
2010,07,12,11,57,18.40
2010,07,12,11,58,16.30
2010,07,12,11,59,23.10
2010,07,12,12,00,27.10
2010,07,12,12,01,27.50
2010,07,12,12,02,26.80
2010,07,12,12,03,14.30
2010,07,12,12,04,15.80
2010,07,12,12,05,25.50
2010,07,12,12,06,25.30
2010,07,12,12,07,22.70
2010,07,12,12,08,24.40
2010,07,12,12,09,31.00
2010,07,12,12,10,22.20
2010,07,12,12,11,21.20
2010,07,12,12,12,25.70
2010,07,12,12,13,18.90
2010,07,12,12,14,34.00
2010,07,12,12,15,26.30
2010,07,12,12,16,25.10
2010,07,12,12,17,27.20
2010,07,12,12,18,25.50
2010,07,12,12,19,26.70
2010,07,12,12,20,26.60
2010,07,12,12,21,27.00
2010,07,12,12,22,23.60
2010,07,12,12,23,15.00
2010,07,12,12,24,24.10
2010,07,12,12,25,16.90
2010,07,12,12,26,16.60
2010,07,12,12,27,18.60
2010,07,12,12,28,14.60
2010,07,12,12,29,20.80
2010,07,12,12,30,22.90
2010,07,12,12,31,21.80
2010,07,12,12,32,27.00
2010,07,12,12,33,22.30
2010,07,12,12,34,24.90
2010,07,12,12,35,20.40
2010,07,12,12,36,20.30
2010,07,12,12,37,21.90
2010,07,12,12,38,17.90
2010,07,12,12,39,13.50
2010,07,12,12,40,19.20
2010,07,12,12,41,24.90
2010,07,12,12,42,20.20
2010,07,12,12,43,8.80
2010,07,12,12,44,16.00
2010,07,12,12,45,17.10
2010,07,12,12,46,18.00
2010,07,12,12,47,24.10
2010,07,12,12,48,21.60
2010,07,12,12,49,12.30
2010,07,12,12,50,20.70
2010,07,12,12,51,16.70
2010,07,12,12,52,15.90
2010,07,12,12,53,14.30
2010,07,12,12,54,17.50
2010,07,12,12,55,14.90
2010,07,12,12,56,17.10
2010,07,12,12,57,15.80
2010,07,12,12,58,23.30
2010,07,12,12,59,16.10
2010,07,12,13,00,22.50
2010,07,12,13,01,24.00
2010,07,12,13,02,22.20
2010,07,12,13,03,20.70
2010,07,12,13,04,14.80
2010,07,12,13,05,14.80
2010,07,12,13,06,16.50
2010,07,12,13,07,19.80
2010,07,12,13,08,12.40
2010,07,12,13,09,11.80
2010,07,12,13,10,22.40
2010,07,12,13,11,12.90
2010,07,12,13,12,27.30
2010,07,12,13,13,20.00
2010,07,12,13,14,17.30
2010,07,12,13,15,15.20
2010,07,12,13,16,19.80
2010,07,12,13,17,20.80
2010,07,12,13,18,16.40
2010,07,12,13,19,23.40
2010,07,12,13,20,25.70
2010,07,12,13,21,20.20
2010,07,12,13,22,18.70
2010,07,12,13,23,20.80
2010,07,12,13,24,19.20
2010,07,12,13,25,23.20
2010,07,12,13,26,19.50
2010,07,12,13,27,24.60
2010,07,12,13,28,19.10
2010,07,12,13,29,25.40
2010,07,12,13,30,20.20
2010,07,12,13,31,24.30
2010,07,12,13,32,19.70
2010,07,12,13,33,23.30
2010,07,12,13,34,24.50
2010,07,12,13,35,24.10
2010,07,12,13,36,22.50
2010,07,12,13,37,26.30
2010,07,12,13,38,22.00
2010,07,12,13,39,23.80
2010,07,12,13,40,26.80
2010,07,12,13,41,22.50
2010,07,12,13,42,29.00
2010,07,12,13,43,23.60
2010,07,12,13,44,22.80
2010,07,12,13,45,27.90
2010,07,12,13,46,28.50
2010,07,12,13,47,27.50
2010,07,12,13,48,21.70
2010,07,12,13,49,21.70
2010,07,12,13,50,28.70
2010,07,12,13,51,23.40
2010,07,12,13,52,27.40
2010,07,12,13,53,21.80
2010,07,12,13,54,29.60
2010,07,12,13,55,20.60
2010,07,12,13,56,20.30
2010,07,12,13,57,18.10
2010,07,12,13,58,21.20
2010,07,12,13,59,31.00
2010,07,12,14,00,22.10
2010,07,12,14,01,21.30
2010,07,12,14,02,31.30
2010,07,12,14,03,30.50
2010,07,12,14,04,25.10
2010,07,12,14,05,33.10
2010,07,12,14,06,24.10
2010,07,12,14,07,30.00
2010,07,12,14,08,22.80
2010,07,12,14,09,15.20
2010,07,12,14,10,14.10
2010,07,12,14,11,21.10
2010,07,12,14,12,24.90
2010,07,12,14,13,27.80
2010,07,12,14,14,22.80
2010,07,12,14,15,25.80
2010,07,12,14,16,26.10
2010,07,12,14,17,20.80
2010,07,12,14,18,21.80
2010,07,12,14,19,17.00
2010,07,12,14,20,28.30
2010,07,12,14,21,31.50
2010,07,12,14,22,28.50
2010,07,12,14,23,23.90
2010,07,12,14,24,23.20
2010,07,12,14,25,29.30
2010,07,12,14,26,32.90
2010,07,12,14,27,30.30
2010,07,12,14,28,23.50
2010,07,12,14,29,28.50
2010,07,12,14,30,23.50
2010,07,12,14,31,33.60
2010,07,12,14,32,24.60
2010,07,12,14,33,33.20
2010,07,12,14,34,23.30
2010,07,12,14,35,17.40
2010,07,12,14,36,29.70
2010,07,12,14,37,29.80
2010,07,12,14,38,31.40
2010,07,12,14,39,27.70
2010,07,12,14,40,32.10
2010,07,12,14,41,34.40
2010,07,12,14,42,32.00
2010,07,12,14,43,25.10
2010,07,12,14,44,22.50
2010,07,12,14,45,30.30
2010,07,12,14,46,33.40
2010,07,12,14,47,25.60
2010,07,12,14,48,20.00
2010,07,12,14,49,30.20
2010,07,12,14,50,34.80
2010,07,12,14,51,25.70
2010,07,12,14,52,28.20
2010,07,12,14,53,29.50
2010,07,12,14,54,36.50
2010,07,12,14,55,24.70
2010,07,12,14,56,17.40
2010,07,12,14,57,21.20
2010,07,12,14,58,22.50
2010,07,12,14,59,29.90
2010,07,12,15,00,24.80
2010,07,12,15,01,25.60
2010,07,12,15,02,24.30
2010,07,12,15,03,22.40
2010,07,12,15,04,21.90
2010,07,12,15,05,18.30
2010,07,12,15,06,14.50
2010,07,12,15,07,24.40
2010,07,12,15,08,25.00
2010,07,12,15,09,33.30
2010,07,12,15,10,27.80
2010,07,12,15,11,27.70
2010,07,12,15,12,19.30
2010,07,12,15,13,24.70
2010,07,12,15,14,25.20
2010,07,12,15,15,30.10
2010,07,12,15,16,29.20
2010,07,12,15,17,27.50
2010,07,12,15,18,27.20
2010,07,12,15,19,26.20
2010,07,12,15,20,17.00
2010,07,12,15,21,30.30
2010,07,12,15,22,18.80
2010,07,12,15,23,24.20
2010,07,12,15,24,24.20
2010,07,12,15,25,26.70
2010,07,12,15,26,21.80
2010,07,12,15,27,13.60
2010,07,12,15,28,24.50
2010,07,12,15,29,31.80
2010,07,12,15,30,25.60
2010,07,12,15,31,30.10
2010,07,12,15,32,18.80
2010,07,12,15,33,25.90
2010,07,12,15,34,21.40
2010,07,12,15,35,27.50
2010,07,12,15,36,33.00
2010,07,12,15,37,33.40
2010,07,12,15,38,28.60
2010,07,12,15,39,32.60
2010,07,12,15,40,29.30
2010,07,12,15,41,21.30
2010,07,12,15,42,28.70
2010,07,12,15,43,24.50
2010,07,12,15,44,22.80
2010,07,12,15,45,17.00
2010,07,12,15,46,22.50
2010,07,12,15,47,25.50
2010,07,12,15,48,28.80
2010,07,12,15,49,24.30
2010,07,12,15,50,30.80
2010,07,12,15,51,26.90
2010,07,12,15,52,22.10
2010,07,12,15,53,26.40
2010,07,12,15,54,20.70
2010,07,12,15,55,29.00
2010,07,12,15,56,31.00
2010,07,12,15,57,26.00
2010,07,12,15,58,28.20
2010,07,12,15,59,25.70
2010,07,12,16,00,20.50
2010,07,12,16,01,26.60
2010,07,12,16,02,27.00
2010,07,12,16,03,22.00
2010,07,12,16,04,24.10
2010,07,12,16,05,22.80
2010,07,12,16,06,24.40
2010,07,12,16,07,23.30
2010,07,12,16,08,19.10
2010,07,12,16,09,16.10
2010,07,12,16,10,20.40
2010,07,12,16,11,29.00
2010,07,12,16,12,24.00
2010,07,12,16,13,17.10
2010,07,12,16,14,17.60
2010,07,12,16,15,19.50
2010,07,12,16,16,22.60
2010,07,12,16,17,30.40
2010,07,12,16,18,23.50
2010,07,12,16,19,17.70
2010,07,12,16,20,17.10
2010,07,12,16,21,23.10
2010,07,12,16,22,25.60
2010,07,12,16,23,27.80
2010,07,12,16,24,29.00
2010,07,12,16,25,26.20
2010,07,12,16,26,23.60
2010,07,12,16,27,23.50
2010,07,12,16,28,32.10
2010,07,12,16,29,24.20
2010,07,12,16,30,24.50
2010,07,12,16,31,28.20
2010,07,12,16,32,28.30
2010,07,12,16,33,28.80
2010,07,12,16,34,28.20
2010,07,12,16,35,21.50
2010,07,12,16,36,29.80
2010,07,12,16,37,23.70
2010,07,12,16,38,24.20
2010,07,12,16,39,22.50
2010,07,12,16,40,19.10
2010,07,12,16,41,26.60
2010,07,12,16,42,17.50
2010,07,12,16,43,25.10
2010,07,12,16,44,25.70
2010,07,12,16,45,18.70
2010,07,12,16,46,23.10
2010,07,12,16,47,29.80
2010,07,12,16,48,23.80
2010,07,12,16,49,15.80
2010,07,12,16,50,20.30
2010,07,12,16,51,19.60
2010,07,12,16,52,26.00
2010,07,12,16,53,24.00
2010,07,12,16,54,19.20
2010,07,12,16,55,21.10
2010,07,12,16,56,25.90
2010,07,12,16,57,23.90
2010,07,12,16,58,25.60
2010,07,12,16,59,24.60
2010,07,12,17,00,20.90
2010,07,12,17,01,22.20
2010,07,12,17,02,17.50
2010,07,12,17,03,29.90
2010,07,12,17,04,18.20
2010,07,12,17,05,20.30
2010,07,12,17,06,20.20
2010,07,12,17,07,19.70
2010,07,12,17,08,19.20
2010,07,12,17,09,23.00
2010,07,12,17,10,23.20
2010,07,12,17,11,20.50
2010,07,12,17,12,16.30
2010,07,12,17,13,21.60
2010,07,12,17,14,17.00
2010,07,12,17,15,23.20
2010,07,12,17,16,25.80
2010,07,12,17,17,18.70
2010,07,12,17,18,10.70
2010,07,12,17,19,24.10
2010,07,12,17,20,29.60
2010,07,12,17,21,19.60
2010,07,12,17,22,18.30
2010,07,12,17,23,22.20
2010,07,12,17,24,28.60